Weather History for KSAV - February, 2012

Change the Weather History Date:

Thursday, February 16, 2012

  Actual Average Record
Temperature  
Mean Temperature 64 °F 53 °F  
Max Temperature 77 °F 65 °F 86 °F (1989)
Min Temperature 51 °F 42 °F 21 °F (1991)
Degree Days  
Heating Degree Days 1 12  
Month to date heating degree days 174 212  
Since 1 July heating degree days 1082 1386  
Cooling Degree Days 0 0  
Month to date cooling degree days 3 0  
Year to date cooling degree days 6 3  
Growing Degree Days 13 (Base 50)    
Moisture  
Dew Point 55 °F    
Average Humidity 77    
Maximum Humidity 100    
Minimum Humidity 54    
Precipitation  
Precipitation T in 0.10 in 2.05 in (1899)
Month to date precipitation 0.15 1.58  
Year to date precipitation 1.60 5.27  
Snow  
Snow 0.00 in 0.00 in - ()
Month to date snowfall 0.0  
Since 1 July snowfall 0.0 0.2  
Snow Depth 0.00 in    
Sea Level Pressure  
Sea Level Pressure 30.13 in    
Wind  
Wind Speed 5 mph (WSW)    
Max Wind Speed 22 mph    
Max Gust Speed 26 mph    
Visibility 6 miles    
Events Fog , Rain    
T = Trace of Precipitation, MM = Missing Value Source: NWS Daily Summary

Daily Weather History Graph

Daily Weather History Graph

Search for Another Location

Airport or City:

Trip Planner

Search our weather history database for the weather conditions in past years. The results will help you decide how hot, cold, wet, or windy it might be!

Date:

Astronomy

Feb. 16, 2012 Rise Set
Actual Time 7:06 AM EST 6:11 PM EST
Civil Twilight 6:41 AM EST 6:36 PM EST
Nautical Twilight 6:13 AM EST 7:05 PM EST
Astronomical Twilight 5:44 AM EST 7:33 PM EST
Moon 2:49 AM EST (2/16) 1:13 PM EST (2/16)
Length of Visible Light 11h 54m
Length of Day
11h 04m
Waning Crescent, 28% of the Moon is Illuminated
Feb 16
Waning Crescent
Feb 21
New
Feb 29
First Quarter
Mar 8
Full
Mar 14
Last Quarter

Hourly Weather History & Observations

Time (EST) Temp. Dew Point Humidity Pressure Visibility Wind Dir Wind Speed Gust Speed Precip Events Conditions
12:34 AM 53.6 °F 51.8 °F 94% 30.22 in 6.0 mi East 4.6 mph - N/A Fog Shallow Fog
12:53 AM 53.1 °F 51.1 °F 93% 30.21 in 5.0 mi East 5.8 mph - N/A Fog Shallow Fog
1:53 AM 54.0 °F 52.0 °F 93% 30.19 in 4.0 mi East 5.8 mph - N/A Fog Shallow Fog
2:53 AM 53.1 °F 51.1 °F 93% 30.17 in 3.0 mi Calm Calm - N/A   Partly Cloudy
3:20 AM 51.8 °F 50.0 °F 94% 30.17 in 2.0 mi Calm Calm - N/A   Mostly Cloudy
3:38 AM 51.8 °F 50.0 °F 94% 30.17 in 1.5 mi Calm Calm - N/A   Mostly Cloudy
3:49 AM 51.8 °F 51.8 °F 100% 30.17 in 0.8 mi Calm Calm - N/A   Mist
3:53 AM 52.0 °F 51.1 °F 97% 30.17 in 0.8 mi Calm Calm - N/A   Mist
4:20 AM 53.6 °F 51.8 °F 94% 30.18 in 0.2 mi Calm Calm - N/A Fog Fog
4:39 AM 53.6 °F 51.8 °F 94% 30.18 in 0.5 mi Calm Calm - N/A Fog Fog
4:50 AM 53.6 °F 51.8 °F 94% 30.19 in 1.2 mi North 3.5 mph - N/A   Overcast
4:53 AM 53.1 °F 51.1 °F 93% 30.19 in 1.8 mi North 3.5 mph - N/A   Overcast
5:53 AM 53.1 °F 51.1 °F 93% 30.17 in 1.8 mi Calm Calm - N/A   Overcast
6:07 AM 53.6 °F 51.8 °F 94% 30.17 in 2.5 mi Calm Calm - N/A   Overcast
6:43 AM 53.6 °F 51.8 °F 94% 30.17 in 5.0 mi Calm Calm - N/A   Overcast
6:53 AM 53.1 °F 52.0 °F 96% 30.17 in 5.0 mi Calm Calm - N/A   Overcast
7:53 AM 55.0 °F 53.1 °F 93% 30.17 in 6.0 mi Calm Calm - N/A   Overcast
8:53 AM 57.9 °F 55.0 °F 90% 30.16 in 8.0 mi Calm Calm - N/A   Overcast
9:53 AM 63.0 °F 57.0 °F 81% 30.16 in 7.0 mi South 3.5 mph - N/A   Overcast
10:53 AM 64.9 °F 60.1 °F 84% 30.16 in 8.0 mi SSW 4.6 mph - 0.00 in Rain Light Rain
11:31 AM 66.2 °F 60.8 °F 83% 30.15 in 10.0 mi West 8.1 mph - 0.00 in   Overcast
11:40 AM 66.2 °F 60.8 °F 83% 30.15 in 10.0 mi West 10.4 mph - 0.00 in   Overcast
11:53 AM 66.0 °F 59.0 °F 78% 30.14 in 10.0 mi WSW 9.2 mph - 0.00 in   Overcast
12:43 PM 66.2 °F 60.8 °F 83% 30.12 in 10.0 mi West 5.8 mph - N/A   Overcast
12:53 PM 64.9 °F 60.1 °F 84% 30.11 in 8.0 mi WSW 4.6 mph - 0.00 in Rain Light Rain
1:53 PM 72.0 °F 60.1 °F 66% 30.07 in 10.0 mi WSW 9.2 mph - 0.00 in   Mostly Cloudy
2:53 PM 75.0 °F 60.1 °F 60% 30.03 in 10.0 mi SW 12.7 mph - N/A   Mostly Cloudy
3:53 PM 75.9 °F 57.9 °F 54% 30.01 in 10.0 mi SW 11.5 mph 19.6 mph N/A   Mostly Cloudy
4:53 PM 75.9 °F 57.0 °F 52% 30.01 in 10.0 mi WSW 10.4 mph - N/A   Mostly Cloudy
5:53 PM 72.0 °F 57.0 °F 59% 30.02 in 10.0 mi WSW 6.9 mph - N/A   Mostly Cloudy
6:53 PM 71.1 °F 57.0 °F 61% 30.03 in 10.0 mi WSW 6.9 mph - N/A   Mostly Cloudy
7:53 PM 68.0 °F 57.9 °F 70% 30.04 in 10.0 mi SSW 4.6 mph - N/A   Mostly Cloudy
8:53 PM 68.0 °F 59.0 °F 73% 30.05 in 10.0 mi SSW 5.8 mph - N/A   Mostly Cloudy
9:53 PM 66.0 °F 59.0 °F 78% 30.05 in 10.0 mi SW 5.8 mph - N/A   Mostly Cloudy
10:53 PM 64.0 °F 59.0 °F 84% 30.04 in 10.0 mi West 4.6 mph - N/A   Mostly Cloudy
11:53 PM 63.0 °F 59.0 °F 87% 30.04 in 10.0 mi WSW 4.6 mph - N/A   Mostly Cloudy